| time (UTC) | temp C | wind direction | speed KPH | gust KPH | rain 1hr cm | rain 24hr cm | rain mn cm | humidity % | barometer mb |
| 20260505065437 | 12 | 90 | 0.0 | 1.6 | 0.00 | 0.00 | 0.00 | 98 | 1011.3 |
| 20260505064837 | 12 | 45 | 0.0 | 0.0 | 0.00 | 0.00 | 0.00 | 97 | 1011.3 |
| 20260505064237 | 11 | 0 | 0.0 | 0.0 | 0.00 | 0.00 | 0.00 | 98 | 1011.2 |
| 20260505063637 | 11 | 45 | 0.0 | 0.0 | 0.00 | 0.00 | 0.00 | 97 | 1011.1 |
| 20260505063037 | 12 | 45 | 0.0 | 1.6 | 0.00 | 0.00 | 0.00 | 97 | 1011.2 |
| 20260505062437 | 12 | 135 | 0.0 | 0.0 | 0.00 | 0.00 | 0.00 | 98 | 1011.2 |
| 20260505061837 | 11 | 45 | 0.0 | 0.0 | 0.00 | 0.00 | 0.00 | 98 | 1011.2 |
| 20260505061237 | 12 | 0 | 0.0 | 0.0 | 0.00 | 0.00 | 0.00 | 98 | 1011.1 |
| 20260505060636 | 11 | 45 | 0.0 | 0.0 | 0.00 | 0.00 | 0.00 | 97 | 1011.1 |
| 20260505060036 | 11 | 0 | 0.0 | 0.0 | 0.00 | 0.00 | 0.00 | 98 | 1011.0 |
| 20260505055437 | 12 | 0 | 0.0 | 1.6 | 0.00 | 0.00 | 2.69 | 97 | 1010.8 |
| 20260505054836 | 12 | 0 | 0.0 | 0.0 | 0.00 | 0.00 | 2.69 | 97 | 1011.0 |
| 20260505054237 | 11 | 45 | 0.0 | 0.0 | 0.00 | 0.00 | 2.69 | 97 | 1010.9 |
| 20260505053636 | 11 | 315 | 0.0 | 0.0 | 0.00 | 0.00 | 2.69 | 97 | 1010.9 |
| 20260505053037 | 11 | 225 | 0.0 | 0.0 | 0.00 | 0.00 | 2.69 | 97 | 1010.9 |
| 20260505052436 | 11 | 180 | 0.0 | 0.0 | 0.00 | 0.00 | 2.69 | 97 | 1010.9 |
| 20260505051837 | 11 | 0 | 0.0 | 0.0 | 0.00 | 0.00 | 2.69 | 98 | 1010.7 |
| 20260505051237 | 10 | 90 | 0.0 | 0.0 | 0.00 | 0.00 | 2.69 | 98 | 1010.8 |
| 20260505050637 | 11 | 0 | 0.0 | 0.0 | 0.00 | 0.00 | 2.69 | 97 | 1010.9 |
| 20260505040637 | 11 | 90 | 0.0 | 0.0 | 0.00 | 0.25 | 2.59 | 97 | 1011.6 |
| 20260505040036 | 11 | 180 | 0.0 | 1.6 | 0.00 | 0.28 | 2.59 | 97 | 1011.8 |
| 20260505035437 | 12 | 180 | 0.0 | 0.0 | 0.00 | 0.20 | 2.57 | 97 | 1012.0 |
| 20260505034837 | 11 | 45 | 0.0 | 0.0 | 0.00 | 0.18 | 2.54 | 97 | 1012.0 |
| 20260505034237 | 11 | 45 | 0.0 | 0.0 | 0.00 | 0.25 | 2.54 | 98 | 1012.1 |
| 20260505033637 | 11 | 180 | 0.0 | 0.0 | 0.00 | 0.28 | 2.54 | 98 | 1012.2 |
| 20260505033037 | 11 | 315 | 1.6 | 1.6 | 0.00 | 0.30 | 2.51 | 97 | 1012.2 |
| 20260505032437 | 11 | 0 | 0.0 | 0.0 | 0.00 | 0.28 | 2.49 | 98 | 1012.2 |
| 20260505031837 | 11 | 135 | 0.0 | 0.0 | 0.00 | 0.25 | 2.46 | 97 | 1012.3 |
| 20260505031237 | 11 | 0 | 0.0 | 0.0 | 0.00 | 0.20 | 2.44 | 97 | 1012.2 |
| 20260505030637 | 11 | 45 | 0.0 | 0.0 | 0.00 | 0.20 | 2.44 | 98 | 1012.2 |
| 20260505030037 | 11 | 135 | 0.0 | 0.0 | 0.00 | 0.25 | 2.41 | 98 | 1012.3 |
| 20260505025437 | 11 | 180 | 0.0 | 0.0 | 0.00 | 0.30 | 2.41 | 97 | 1012.4 |
| 20260505024837 | 11 | 45 | 0.0 | 0.0 | 0.00 | 0.28 | 2.39 | 97 | 1012.3 |
| 20260505024237 | 11 | 45 | 0.0 | 0.0 | 0.00 | 0.28 | 2.36 | 98 | 1012.5 |
| 20260505023637 | 11 | 90 | 0.0 | 0.0 | 0.00 | 0.28 | 2.36 | 98 | 1012.5 |
| 20260505023037 | 11 | 0 | 0.0 | 0.0 | 0.00 | 0.28 | 2.34 | 98 | 1012.7 |
| 20260505022436 | 11 | 45 | 0.0 | 0.0 | 0.00 | 0.25 | 2.31 | 97 | 1012.6 |
| 20260505021838 | 11 | 180 | 0.0 | 0.0 | 0.00 | 0.25 | 2.31 | 97 | 1012.6 |
| 20260505021237 | 11 | 0 | 0.0 | 0.0 | 0.00 | 0.28 | 2.29 | 98 | 1012.5 |
| 20260505020637 | 11 | 45 | 0.0 | 0.0 | 0.00 | 0.23 | 2.26 | 98 | 1012.5 |
| 20260505020037 | 11 | 180 | 0.0 | 0.0 | 0.00 | 0.20 | 2.24 | 98 | 1012.5 |
| 20260505015437 | 11 | 0 | 0.0 | 0.0 | 0.00 | 0.23 | 2.24 | 97 | 1012.6 |
| 20260505014836 | 11 | 90 | 0.0 | 0.0 | 0.00 | 0.25 | 2.21 | 98 | 1012.6 |
| 20260505014237 | 11 | 180 | 0.0 | 0.0 | 0.00 | 0.25 | 2.21 | 97 | 1012.6 |
| 20260505013637 | 11 | 180 | 0.0 | 0.0 | 0.00 | 0.25 | 2.18 | 97 | 1012.5 |
| 20260505013037 | 10 | 180 | 0.0 | 0.0 | 0.00 | 0.23 | 2.16 | 98 | 1012.4 |
| 20260505012436 | 11 | 135 | 0.0 | 0.0 | 0.00 | 0.23 | 2.16 | 98 | 1012.5 |
| 20260505011838 | 11 | 180 | 0.0 | 1.6 | 0.00 | 0.18 | 2.13 | 97 | 1012.5 |
| 20260505010637 | 11 | 180 | 0.0 | 0.0 | 0.00 | 0.10 | 2.11 | 98 | 1012.7 |
| 20260505010037 | 11 | 45 | 0.0 | 0.0 | 0.00 | 0.10 | 2.11 | 97 | 1012.6 |
| 20260505005436 | 11 | 180 | 0.0 | 0.0 | 0.00 | 0.13 | 2.08 | 97 | 1012.8 |
| 20260505004837 | 11 | 45 | 0.0 | 0.0 | 0.00 | 0.18 | 2.08 | 97 | 1012.8 |
| 20260505004236 | 11 | 225 | 0.0 | 0.0 | 0.00 | 0.23 | 2.08 | 98 | 1013.0 |
| 20260505003637 | 11 | 180 | 0.0 | 0.0 | 0.00 | 0.33 | 2.06 | 98 | 1013.1 |
| 20260505003037 | 11 | 180 | 0.0 | 0.0 | 0.00 | 0.33 | 2.06 | 98 | 1013.2 |
| 20260505002436 | 11 | 180 | 0.0 | 0.0 | 0.00 | 0.33 | 2.03 | 97 | 1013.2 |
| 20260505001837 | 11 | 0 | 0.0 | 0.0 | 0.00 | 0.33 | 2.01 | 98 | 1013.3 |
| 20260505001237 | 11 | 45 | 0.0 | 0.0 | 0.00 | 0.33 | 1.98 | 97 | 1013.5 |
| 20260505000637 | 11 | 90 | 0.0 | 0.0 | 0.00 | 0.33 | 1.98 | 97 | 1013.5 |
| 20260505000037 | 11 | 180 | 0.0 | 0.0 | 0.00 | 0.30 | 1.93 | 98 | 1013.5 |
| 20260504235437 | 11 | 135 | 0.0 | 0.0 | 0.00 | 0.28 | 1.93 | 98 | 1013.5 |
| 20260504234836 | 11 | 0 | 0.0 | 0.0 | 0.00 | 0.28 | 1.91 | 97 | 1013.6 |
| 20260504234237 | 11 | 0 | 0.0 | 1.6 | 0.00 | 0.30 | 1.88 | 97 | 1013.7 |
| 20260504233637 | 11 | 45 | 0.0 | 0.0 | 0.00 | 0.28 | 1.85 | 97 | 1013.8 |
| 20260504233037 | 11 | 180 | 0.0 | 0.0 | 0.00 | 0.23 | 1.83 | 98 | 1013.9 |
| 20260504232436 | 11 | 180 | 0.0 | 0.0 | 0.00 | 0.18 | 1.83 | 98 | 1013.8 |
| 20260504231837 | 11 | 180 | 1.6 | 1.6 | 0.00 | 0.15 | 1.80 | 98 | 1013.8 |
| 20260504231237 | 11 | 180 | 0.0 | 0.0 | 0.00 | 0.18 | 1.80 | 98 | 1013.5 |
| 20260504230637 | 12 | 135 | 0.0 | 0.0 | 0.00 | 0.23 | 1.78 | 97 | 1013.4 |
| 20260504230037 | 11 | 0 | 0.0 | 0.0 | 0.00 | 0.28 | 1.78 | 97 | 1013.5 |
| 20260504225437 | 11 | 315 | 0.0 | 0.0 | 0.00 | 0.28 | 1.75 | 98 | 1013.5 |
| 20260504224836 | 11 | 315 | 0.0 | 1.6 | 0.00 | 0.23 | 1.73 | 97 | 1013.5 |
| 20260504224237 | 12 | 180 | 0.0 | 0.0 | 0.00 | 0.15 | 1.70 | 98 | 1013.7 |
| 20260504223637 | 11 | 180 | 0.0 | 0.0 | 0.00 | 0.10 | 1.70 | 98 | 1013.7 |
| 20260504223037 | 11 | 315 | 0.0 | 0.0 | 0.00 | 0.10 | 1.70 | 97 | 1013.6 |
| 20260504221837 | 11 | 90 | 0.0 | 0.0 | 0.00 | 0.00 | 1.65 | 97 | 1013.4 |
| 20260504221237 | 11 | 90 | 0.0 | 0.0 | 0.00 | 0.00 | 1.65 | 97 | 1013.3 |
| 20260504220637 | 11 | 45 | 0.0 | 0.0 | 0.00 | 0.00 | 1.65 | 97 | 1013.3 |
| 20260504220037 | 11 | 45 | 0.0 | 0.0 | 0.00 | 0.00 | 1.65 | 97 | 1013.3 |
| 20260504215437 | 11 | 135 | 0.0 | 0.0 | 0.00 | 0.00 | 1.65 | 97 | 1013.3 |
| 20260504214837 | 11 | 90 | 0.0 | 0.0 | 0.00 | 0.00 | 1.65 | 97 | 1013.3 |
| 20260504214237 | 11 | 180 | 0.0 | 0.0 | 0.00 | 0.00 | 1.65 | 97 | 1013.3 |
| 20260504213637 | 11 | 180 | 0.0 | 0.0 | 0.00 | 0.00 | 1.65 | 97 | 1013.4 |
| 20260504213037 | 11 | 135 | 0.0 | 0.0 | 0.00 | 0.00 | 1.65 | 97 | 1013.4 |
| 20260504212437 | 11 | 45 | 0.0 | 0.0 | 0.00 | 0.00 | 1.65 | 97 | 1013.3 |
| 20260504211837 | 11 | 180 | 0.0 | 0.0 | 0.00 | 0.00 | 1.65 | 97 | 1013.5 |
| 20260504211237 | 11 | 180 | 0.0 | 0.0 | 0.00 | 0.00 | 1.65 | 97 | 1013.3 |
| 20260504210637 | 11 | 180 | 0.0 | 0.0 | 0.00 | 0.00 | 1.65 | 97 | 1013.6 |
| 20260504210037 | 11 | 0 | 0.0 | 0.0 | 0.00 | 0.00 | 1.65 | 97 | 1013.5 |
| 20260504205436 | 11 | 180 | 0.0 | 0.0 | 0.00 | 0.00 | 1.65 | 97 | 1013.6 |
| 20260504204837 | 11 | 180 | 0.0 | 0.0 | 0.00 | 0.00 | 1.65 | 97 | 1013.7 |
| 20260504204237 | 11 | 0 | 0.0 | 0.0 | 0.00 | 0.00 | 1.65 | 97 | 1013.6 |
| 20260504203637 | 11 | 135 | 0.0 | 0.0 | 0.00 | 0.00 | 1.65 | 97 | 1013.8 |
| 20260504203037 | 11 | 180 | 0.0 | 0.0 | 0.00 | 0.00 | 1.65 | 97 | 1013.9 |
| 20260504202437 | 11 | 180 | 0.0 | 0.0 | 0.00 | 0.00 | 1.65 | 97 | 1014.1 |
| 20260504201837 | 11 | 45 | 0.0 | 0.0 | 0.00 | 0.00 | 1.65 | 97 | 1014.0 |
| 20260504201238 | 11 | 90 | 0.0 | 0.0 | 0.00 | 0.00 | 1.65 | 97 | 1014.0 |
| 20260504200637 | 11 | 135 | 0.0 | 0.0 | 0.00 | 0.00 | 1.65 | 97 | 1014.0 |
| 20260504200037 | 11 | 0 | 0.0 | 0.0 | 0.00 | 0.00 | 1.65 | 97 | 1014.1 |
| 20260504195437 | 11 | 45 | 0.0 | 0.0 | 0.00 | 0.00 | 1.65 | 97 | 1014.0 |
| 20260504192437 | 11 | 180 | 0.0 | 0.0 | 0.00 | 0.00 | 1.65 | 97 | 1014.3 |
| 20260504190637 | 11 | 315 | 0.0 | 0.0 | 0.00 | 0.13 | 1.65 | 97 | 1014.6 |
| 20260504190037 | 11 | 0 | 0.0 | 0.0 | 0.00 | 0.15 | 1.65 | 97 | 1014.7 |
| 20260504183637 | 12 | 135 | 0.0 | 0.0 | 0.00 | 0.13 | 1.63 | 97 | 1014.9 |
| 20260504183037 | 12 | 0 | 0.0 | 1.6 | 0.00 | 0.13 | 1.60 | 97 | 1014.8 |
| 20260504182436 | 11 | 90 | 0.0 | 0.0 | 0.00 | 0.13 | 1.60 | 97 | 1014.8 |
| 20260504181836 | 12 | 45 | 0.0 | 0.0 | 0.00 | 0.18 | 1.60 | 97 | 1014.9 |
| 20260504181237 | 11 | 90 | 0.0 | 0.0 | 0.00 | 0.20 | 1.60 | 96 | 1015.0 |
| 20260504180637 | 11 | 135 | 0.0 | 0.0 | 0.00 | 0.25 | 1.57 | 97 | 1015.0 |
| 20260504180037 | 12 | 315 | 0.0 | 0.0 | 0.00 | 0.33 | 1.57 | 96 | 1015.1 |
| 20260504175437 | 11 | 135 | 0.0 | 0.0 | 0.00 | 0.28 | 1.55 | 96 | 1015.1 |
| 20260504174836 | 11 | 180 | 0.0 | 0.0 | 0.00 | 0.28 | 1.52 | 96 | 1015.2 |
| 20260504174237 | 12 | 45 | 0.0 | 0.0 | 0.00 | 0.23 | 1.50 | 96 | 1015.2 |
| 20260504173637 | 12 | 180 | 0.0 | 0.0 | 0.00 | 0.15 | 1.47 | 96 | 1015.2 |
| 20260504173037 | 12 | 180 | 0.0 | 1.6 | 0.00 | 0.13 | 1.45 | 96 | 1015.2 |
| 20260504172437 | 11 | 90 | 0.0 | 0.0 | 0.00 | 0.13 | 1.45 | 96 | 1015.2 |
| 20260504171837 | 12 | 45 | 0.0 | 0.0 | 0.00 | 0.18 | 1.45 | 96 | 1015.2 |
| 20260504171236 | 12 | 90 | 0.0 | 0.0 | 0.00 | 0.20 | 1.45 | 96 | 1015.2 |
| 20260504170637 | 12 | 180 | 0.0 | 0.0 | 0.00 | 0.23 | 1.45 | 96 | 1015.2 |
| 20260504150637 | 12 | 0 | 0.0 | 1.6 | 0.00 | 0.15 | 1.24 | 97 | 1016.2 |
| 20260504141237 | 12 | 135 | 0.0 | 0.0 | 0.00 | 0.20 | 1.14 | 97 | 1016.7 |
| 20260504140637 | 11 | 270 | 0.0 | 0.0 | 0.00 | 0.28 | 1.14 | 97 | 1016.7 |
| 20260504130637 | 11 | 45 | 0.0 | 0.0 | 0.00 | 0.15 | 0.99 | 97 | 1016.9 |
| 20260504110637 | 12 | 180 | 0.0 | 0.0 | 0.00 | 0.36 | 0.58 | 96 | 1017.3 |